[[{"header":{"parameterUnit":"m.s-1","parameterCategory":1,"la1":30.2991,"la2":30.254,"lo1":-89.0895,"lo2":-89.0444,"dy":0.0017,"dx":0.0017,"nx":28,"ny":28,"refTime":"2025-07-30T21:00:00:Z","depth":0,"parameterNumber":2,"parameterNumberName":"U-component_of_WINDS"},"data":[0,0,0,0,0,0,0,0,0,0,0,0,0,0,0,0,0,0,0,0,0,0,0,0,0,0,0,0,0,0,0,0,0,0,0,0,0,0,0,0,0,0,0,0,0,0,0,0,0,0,0,0,0,0,0,0,0,0,1.9169,1.917,0,1.9273,1.9274,1.9275,1.9228,1.9226,1.9223,1.9221,1.9328,1.9334,1.9339,0,0,0,0,0,0,0,0,0,0,0,0,0,1.8931,1.8935,1.9169,1.917,1.9172,1.9273,1.9274,1.9276,1.9229,1.9226,1.9222,1.922,1.9327,1.9333,1.9339,0,0,0,0,0,0,0,0,0,0,0,0,0,1.9034,1.8937,1.9169,1.916,1.9161,1.9273,1.9274,1.9276,1.9229,1.9226,1.9222,1.9218,1.9325,1.9332,1.934,1.9467,0,0,1.9364,1.9368,0,0,0,0,0,0,0,0,1.9029,1.9043,1.916,1.9161,1.9162,1.9234,1.923,1.934,1.923,1.9203,1.9221,1.9216,1.93,1.931,1.9338,1.9472,1.9476,1.9365,1.937,1.9373,1.9376,0,0,0,0,0,0,0,1.9021,1.9038,1.921,1.9162,1.9163,1.9152,1.9162,1.925,1.9272,1.9205,1.9202,1.9215,1.93,1.933,1.934,1.9478,1.9365,1.9372,1.9377,1.938,1.9721,1.9725,0,0,0,0,0,0,1.9014,1.9033,1.9207,1.9213,1.9084,1.9159,1.9171,1.9215,1.9271,1.9276,1.9218,1.9213,1.9319,1.9331,1.9344,1.9496,1.9373,1.9381,1.9385,1.9717,1.9722,1.9727,0,0,0,0,0,0,1.9009,1.903,1.9203,1.9122,1.9143,1.9167,1.9217,1.9219,1.9249,1.9281,1.9285,1.9246,1.9316,1.9333,1.9436,1.9499,1.9384,1.9391,1.9712,1.9718,1.9724,1.9802,0,0,0,0,0,0,1.9003,1.9029,1.9077,1.9124,1.9148,1.9294,1.9221,1.9223,1.9263,1.9256,1.9308,1.9312,1.9314,1.9425,1.9444,1.9508,1.9398,1.9706,1.9715,1.9722,1.9794,1.981,1.9824,0,0,0,0,0,1.8994,1.9095,1.908,1.9101,1.9209,1.9298,1.9311,1.9311,1.9268,1.9317,1.9337,1.9311,1.9489,1.9436,1.9457,1.9524,1.9702,1.9712,1.9722,1.9787,1.9807,1.9824,0,0,0,0,0,0,1.9056,1.9101,1.9085,1.9203,1.9247,1.9289,1.9351,1.9332,1.939,1.9381,1.9379,1.9391,1.9499,1.9522,1.9462,1.965,1.9589,1.9603,1.9631,1.965,1.9665,1.9658,1.9404,0,0,0,0,0,1.9083,1.9151,1.9187,1.9288,1.9311,1.9327,1.9366,1.9362,1.9407,1.9426,1.9454,1.9499,1.9565,1.9609,1.9671,1.9796,1.9807,1.9853,1.9868,1.988,1.9893,1.9961,1.9982,1.9759,1.9758,1.9758,0,0,1.914,1.9173,1.9216,1.9301,1.9335,1.9406,1.9343,1.9421,1.9474,1.9438,1.9538,1.956,1.961,1.9725,1.9777,1.9748,1.9957,1.9893,1.9902,1.9909,1.9974,1.9995,2.0014,1.9765,1.9764,1.9763,0,0,1.9281,1.9312,1.94,1.9435,1.9486,1.9496,1.9517,1.9563,1.9576,1.9676,1.965,1.9713,1.9827,1.9864,1.9898,2.0051,2.0029,2.0072,2.0152,2.0218,2.0236,2.0251,2.0307,2.0327,2.0084,2.0084,2.0085,0,1.9346,1.9452,1.9448,1.9528,1.9566,1.9536,1.9625,1.9659,1.9728,1.9756,1.9721,1.9863,1.9895,2.0018,2.0056,2.0084,2.0108,2.0067,2.0233,2.0249,2.0264,2.0317,2.0338,2.0089,2.0089,2.0088,2.0088,0,1.9529,1.9603,1.9668,1.9735,1.978,1.9865,1.9874,1.9921,1.9912,1.9926,2.0029,2.0065,2.0135,2.0163,2.0156,2.0286,2.0266,2.0233,2.0172,2.029,2.034,2.036,2.0096,2.0095,2.0093,2.0092,0,0,1.9713,1.9777,1.9801,1.9831,1.9885,1.9942,2.0024,2.0092,2.0132,2.018,2.025,2.0346,2.0316,2.0354,2.0351,2.0409,2.0529,2.0368,2.0369,2.0398,2.0675,2.0701,2.0725,2.0514,2.0518,2.0521,2.0671,0,1.9858,2.0004,2.0003,2.0137,2.0205,2.0177,2.0249,2.029,2.0305,2.0365,2.0381,2.045,2.0403,2.0426,2.0483,2.0503,2.0585,2.0492,2.058,2.0583,2.057,2.0751,2.0779,2.0919,2.0691,2.0694,2.0697,0,2.0048,2.0102,2.0244,2.0287,2.0316,2.0381,2.0443,2.05,2.0546,2.0552,2.0595,2.0582,2.0667,2.0602,2.0718,2.0655,2.069,2.0706,2.0711,2.0721,2.0648,2.0767,2.0964,2.0986,2.0727,2.0725,2.0722,0,2.017,2.0278,2.0376,2.0403,2.0456,2.0502,2.0527,2.0568,2.0609,2.0663,2.0689,2.0752,2.0787,2.0836,2.0841,2.0793,2.0959,2.0894,2.0967,2.0967,2.1005,2.1003,2.1212,2.1026,2.1025,2.1025,2.1024,0,2.0333,2.0421,2.0431,2.0492,2.059,2.0587,2.0684,2.0704,2.0741,2.0806,2.0784,2.0845,2.0847,2.0909,2.0913,2.101,2.1025,2.1033,2.1034,2.1036,2.1036,2.1061,2.1052,2.103,2.1029,2.1028,2.1027,0,2.0486,2.0496,2.0602,2.0643,2.0656,2.0726,2.0761,2.0819,2.0831,2.0913,2.0932,2.0952,2.1024,2.1033,2.1117,2.112,2.1236,2.1225,2.1221,2.122,2.1293,2.1287,2.1527,2.1559,2.1351,2.1353,2.1354,0,2.059,2.0657,2.0706,2.0747,2.0774,2.0841,2.0882,2.0882,2.0926,2.0983,2.1034,2.1104,2.116,2.1276,2.1298,2.1362,2.1354,2.1434,2.1364,2.1364,2.1357,2.1353,2.136,2.1448,2.145,2.1452,2.1454,0,2.0775,2.0777,2.0837,2.09,2.0949,2.0998,2.1044,2.108,2.1085,2.1136,2.1209,2.1252,2.1338,2.1408,2.1471,2.1496,2.1477,2.1475,2.1496,2.15,2.1495,2.15,2.126,2.147,2.1469,2.1467,2.1466,2.1466,2.0908,2.0966,2.1009,2.1077,2.1112,2.1155,2.1212,2.1231,2.1292,2.1362,2.1358,2.1439,2.1482,2.1565,2.1594,2.1658,2.1632,2.1661,2.1669,2.1677,2.1685,2.1484,2.1669,2.1669,2.1668,2.1668,2.1668,0,2.1093,2.1119,2.1181,2.1246,2.13,2.1275,2.1325,2.1371,2.1443,2.1485,2.154,2.1625,2.1692,2.1719,2.1785,2.183,2.1823,2.1848,2.1845,2.1852,2.1704,2.168,2.1853,2.1853,2.1853,2.1853,2.1853,2.1853,2.1195,2.1293,2.13,2.1414,2.1439,2.1518,2.1549,2.1589,2.1622,2.1718,2.1774,2.179,2.1826,2.1894,2.1955,2.1961,2.1987,2.2017,2.2019,2.1881,2.1862,2.1844,2.1822,2.2022,2.2022,2.2162,2.2163,2.2164]},{"header":{"parameterUnit":"m.s-1","parameterCategory":1,"la1":30.2991,"la2":30.254,"lo1":-89.0895,"lo2":-89.0444,"dy":0.0017,"dx":0.0017,"nx":28,"ny":28,"refTime":"2025-07-30T21:00:00:Z","depth":0,"parameterNumber":3,"parameterNumberName":"V-component_of_WINDS"},"data":[0,0,0,0,0,0,0,0,0,0,0,0,0,0,0,0,0,0,0,0,0,0,0,0,0,0,0,0,0,0,0,0,0,0,0,0,0,0,0,0,0,0,0,0,0,0,0,0,0,0,0,0,0,0,0,0,0,0,6.1975,6.1975,0,6.2048,6.2049,6.205,6.1999,6.1997,6.1995,6.1993,6.206,6.2064,6.2068,0,0,0,0,0,0,0,0,0,0,0,0,0,6.1782,6.1785,6.1975,6.1975,6.1976,6.2048,6.2049,6.205,6.2,6.1997,6.1994,6.1992,6.2059,6.2063,6.2068,0,0,0,0,0,0,0,0,0,0,0,0,0,6.1861,6.1787,6.1974,6.196,6.196,6.2048,6.2049,6.205,6.2,6.1997,6.1994,6.1991,6.2057,6.2063,6.2069,6.2172,0,0,6.2087,6.2089,0,0,0,0,0,0,0,0,6.1857,6.1868,6.1961,6.1961,6.1961,6.2011,6.2006,6.2091,6.2001,6.1985,6.1993,6.1989,6.2046,6.2053,6.2074,6.2176,6.2178,6.2087,6.2091,6.2093,6.2095,0,0,0,0,0,0,0,6.1851,6.1865,6.2003,6.1963,6.1962,6.1947,6.1955,6.2022,6.2033,6.1986,6.1982,6.1992,6.2045,6.2068,6.2075,6.2179,6.2087,6.2092,6.2096,6.2098,6.2369,6.2373,0,0,0,0,0,0,6.1848,6.1861,6.2001,6.2006,6.19,6.1954,6.1962,6.1998,6.2032,6.2034,6.1995,6.199,6.206,6.2068,6.2077,6.22,6.2093,6.2099,6.2102,6.2366,6.237,6.2374,0,0,0,0,0,0,6.1844,6.1861,6.1998,6.1932,6.1949,6.1961,6.2002,6.2002,6.2025,6.204,6.204,6.2017,6.2057,6.2069,6.215,6.2202,6.2101,6.2106,6.2361,6.2367,6.2372,6.2448,0,0,0,0,0,0,6.1839,6.186,6.1902,6.1934,6.1952,6.2072,6.2005,6.2006,6.2036,6.2029,6.206,6.2062,6.2056,6.2141,6.2155,6.2208,6.2111,6.2357,6.2364,6.237,6.2441,6.2456,6.2469,0,0,0,0,0,6.1832,6.1918,6.1904,6.1921,6.2005,6.2075,6.2086,6.2079,6.204,6.2081,6.209,6.2061,6.2194,6.215,6.2165,6.2221,6.2353,6.2362,6.237,6.2435,6.2453,6.2468,0,0,0,0,0,0,6.1889,6.1922,6.1907,6.2007,6.2039,6.2067,6.2118,6.2098,6.214,6.2132,6.2119,6.2126,6.2211,6.2224,6.2174,6.2323,6.2267,6.2279,6.2311,6.2329,6.2342,6.2337,6.2116,0,0,0,0,0,6.1914,6.1971,6.1996,6.2081,6.2099,6.2106,6.2136,6.2128,6.216,6.2173,6.2188,6.2218,6.2266,6.2298,6.2343,6.2443,6.2448,6.2489,6.2502,6.2513,6.2523,6.2576,6.2594,6.2402,6.2402,6.2401,0,0,6.1964,6.199,6.2026,6.2093,6.2118,6.2174,6.2117,6.218,6.2221,6.2181,6.2259,6.2271,6.2303,6.2394,6.2435,6.2407,6.2578,6.2524,6.2533,6.2537,6.2587,6.2605,6.2621,6.2407,6.2406,6.2405,0,0,6.2085,6.2111,6.2185,6.2211,6.225,6.2254,6.2272,6.2303,6.2311,6.2389,6.2361,6.2408,6.2492,6.2516,6.2539,6.267,6.2644,6.2685,6.2756,6.2807,6.2823,6.2836,6.2882,6.2899,6.2695,6.2695,6.2695,0,6.2142,6.223,6.2225,6.2291,6.232,6.229,6.2363,6.2387,6.2438,6.2457,6.2427,6.2532,6.2551,6.2647,6.2679,6.2699,6.2717,6.2681,6.2821,6.2835,6.2847,6.2891,6.2908,6.27,6.2699,6.2699,6.2699,0,6.2298,6.2359,6.2414,6.2467,6.2502,6.2571,6.2574,6.261,6.26,6.2606,6.2686,6.2708,6.2758,6.278,6.2769,6.2874,6.2856,6.2824,6.2767,6.287,6.2911,6.2928,6.2707,6.2705,6.2704,6.2702,0,0,6.2456,6.2507,6.2527,6.255,6.2591,6.2636,6.2703,6.2754,6.2785,6.282,6.2875,6.2947,6.2918,6.2944,6.2935,6.2981,6.3082,6.2943,6.2943,6.2967,6.3198,6.3222,6.3242,6.3066,6.3069,6.3071,6.3195,0,6.258,6.27,6.2697,6.2807,6.2863,6.2835,6.2892,6.2922,6.293,6.2976,6.2983,6.3035,6.2992,6.3008,6.3052,6.3061,6.3128,6.3052,6.3114,6.3116,6.3107,6.3263,6.3288,6.3404,6.3211,6.3214,6.3216,0,6.274,6.2784,6.2901,6.2934,6.2956,6.3009,6.3056,6.3101,6.3133,6.3135,6.3165,6.3149,6.3214,6.3157,6.3245,6.3194,6.3219,6.3227,6.3231,6.3236,6.3172,6.3271,6.3441,6.3458,6.3241,6.3239,6.3237,0,6.2843,6.2931,6.3013,6.3034,6.3074,6.3111,6.3129,6.3158,6.3189,6.3229,6.3248,6.3294,6.3318,6.3353,6.3349,6.3308,6.3438,6.3381,6.344,6.344,6.3468,6.3466,6.3644,6.3486,6.3485,6.3485,6.3485,0,6.2981,6.3053,6.306,6.311,6.319,6.3184,6.3262,6.3276,6.3302,6.3352,6.3329,6.3376,6.3368,6.3414,6.3411,6.3484,6.3495,6.3497,6.3495,6.3499,6.3499,6.3515,6.3506,6.349,6.3489,6.3488,6.3487,0,6.3109,6.3117,6.3204,6.3236,6.3245,6.3303,6.3328,6.3374,6.3381,6.3444,6.3458,6.3467,6.3521,6.352,6.358,6.3578,6.3667,6.3656,6.3657,6.3655,6.3714,6.3708,6.3907,6.3932,6.3759,6.376,6.3762,0,6.3197,6.3252,6.3291,6.3324,6.3346,6.3399,6.3432,6.3428,6.3462,6.3503,6.3543,6.3595,6.3636,6.3722,6.3732,6.3777,6.3767,6.3833,6.3773,6.3775,6.3767,6.3763,6.3768,6.3845,6.3847,6.3848,6.385,0,6.335,6.3352,6.3401,6.3452,6.3492,6.3531,6.3566,6.3594,6.3594,6.3633,6.3689,6.3721,6.3783,6.3834,6.3878,6.3892,6.3871,6.3869,6.3885,6.3889,6.3887,6.3888,6.3689,6.3864,6.3862,6.3861,6.3861,6.386,6.346,6.3509,6.3544,6.3599,6.3626,6.366,6.3706,6.3719,6.3766,6.3819,6.3813,6.3874,6.3903,6.3961,6.398,6.4026,6.4002,6.4025,6.4031,6.4037,6.4043,6.3881,6.4034,6.4033,6.4033,6.4033,6.4032,0,6.3612,6.3634,6.3685,6.3738,6.3781,6.376,6.3798,6.3834,6.389,6.3921,6.3963,6.4026,6.4075,6.409,6.4137,6.4171,6.4162,6.4183,6.418,6.4184,6.4062,6.4043,6.419,6.419,6.419,6.419,6.419,6.419,6.3697,6.3777,6.3783,6.3875,6.3895,6.3958,6.3982,6.4012,6.4037,6.411,6.4152,6.4162,6.4186,6.4234,6.4278,6.4281,6.4298,6.4324,6.4322,6.4208,6.4192,6.4177,6.416,6.4328,6.4328,6.444,6.4441,6.4442]}]]